| time (UTC) | temp C | wind direction | speed KPH | gust KPH | rain 1hr cm | rain 24hr cm | rain mn cm | humidity % | barometer mb |
| 20260507210017 | 12 | 293 | 11.3 | 17.7 | 0.00 | 0.00 | 0.00 | 36 | 1008.0 |
| 20260507205018 | 12 | 315 | 11.3 | 22.5 | 0.00 | 0.00 | 0.00 | 36 | 1008.1 |
| 20260507204017 | 12 | 338 | 12.9 | 24.1 | 0.00 | 0.00 | 0.00 | 35 | 1008.0 |
| 20260507203058 | 13 | 315 | 11.3 | 22.5 | 0.00 | 0.00 | 0.00 | 35 | 1008.1 |
| 20260507202017 | 13 | 338 | 17.7 | 29.0 | 0.00 | 0.00 | 0.00 | 34 | 1008.1 |
| 20260507201019 | 12 | 338 | 14.5 | 29.0 | 0.00 | 0.00 | 0.00 | 37 | 1008.1 |
| 20260507200017 | 12 | 338 | 16.1 | 30.6 | 0.00 | 0.00 | 0.00 | 36 | 1008.1 |
| 20260507195017 | 12 | 338 | 12.9 | 22.5 | 0.00 | 0.00 | 0.00 | 37 | 1008.2 |
| 20260507194017 | 13 | 338 | 9.7 | 22.5 | 0.00 | 0.00 | 0.00 | 37 | 1008.3 |
| 20260507193017 | 13 | 338 | 12.9 | 25.7 | 0.00 | 0.00 | 0.00 | 36 | 1008.3 |
| 20260507192017 | 12 | 338 | 12.9 | 20.9 | 0.00 | 0.00 | 0.00 | 38 | 1008.5 |
| 20260507191057 | 12 | 338 | 11.3 | 24.1 | 0.00 | 0.00 | 0.00 | 40 | 1008.7 |
| 20260507190017 | 13 | 293 | 11.3 | 19.3 | 0.00 | 0.00 | 0.00 | 40 | 1008.7 |
| 20260507185017 | 13 | 315 | 9.7 | 17.7 | 0.00 | 0.00 | 0.00 | 41 | 1008.8 |
| 20260507184017 | 13 | 293 | 12.9 | 32.2 | 0.00 | 0.00 | 0.00 | 39 | 1008.9 |
| 20260507183017 | 12 | 315 | 6.4 | 11.3 | 0.00 | 0.00 | 0.00 | 42 | 1009.0 |
| 20260507182017 | 12 | 338 | 8.0 | 17.7 | 0.00 | 0.00 | 0.00 | 43 | 1009.0 |
| 20260507181037 | 12 | 23 | 9.7 | 19.3 | 0.00 | 0.00 | 0.00 | 43 | 1009.1 |
| 20260507180037 | 12 | 338 | 11.3 | 22.5 | 0.00 | 0.03 | 0.00 | 43 | 1009.2 |
| 20260507175018 | 13 | 293 | 9.7 | 17.7 | 0.00 | 0.03 | 0.00 | 41 | 1009.2 |
| 20260507174019 | 12 | 293 | 8.0 | 16.1 | 0.00 | 0.03 | 0.00 | 42 | 1009.4 |
| 20260507173019 | 12 | 23 | 3.2 | 8.0 | 0.00 | 0.03 | 0.00 | 45 | 1009.6 |
| 20260507172018 | 12 | 248 | 8.0 | 16.1 | 0.00 | 0.03 | 0.00 | 45 | 1009.6 |
| 20260507171018 | 12 | 293 | 8.0 | 16.1 | 0.00 | 0.03 | 0.00 | 44 | 1009.5 |
| 20260507170019 | 11 | 293 | 8.0 | 19.3 | 0.00 | 0.03 | 0.00 | 47 | 1009.5 |
| 20260507165018 | 11 | 248 | 8.0 | 17.7 | 0.00 | 0.03 | 0.00 | 48 | 1009.6 |
| 20260507164019 | 11 | 23 | 9.7 | 19.3 | 0.00 | 0.03 | 0.00 | 50 | 1009.8 |
| 20260507163019 | 12 | 248 | 8.0 | 16.1 | 0.00 | 0.05 | 0.00 | 49 | 1010.0 |
| 20260507162018 | 11 | 248 | 6.4 | 16.1 | 0.00 | 0.05 | 0.00 | 49 | 1010.1 |
| 20260507161019 | 11 | 293 | 1.6 | 8.0 | 0.00 | 0.08 | 0.00 | 51 | 1010.3 |
| 20260507160019 | 11 | 338 | 8.0 | 19.3 | 0.00 | 0.10 | 0.00 | 51 | 1010.3 |
| 20260507155019 | 10 | 23 | 1.6 | 6.4 | 0.00 | 0.15 | 0.00 | 52 | 1010.4 |
| 20260507154018 | 9 | 338 | 8.0 | 16.1 | 0.00 | 0.20 | 0.00 | 53 | 1010.7 |
| 20260507153039 | 10 | 315 | 6.4 | 12.9 | 0.00 | 0.20 | 0.00 | 52 | 1010.7 |
| 20260507152018 | 9 | 23 | 8.0 | 17.7 | 0.00 | 0.23 | 0.00 | 53 | 1010.8 |
| 20260507151018 | 8 | 23 | 4.8 | 9.7 | 0.00 | 0.25 | 0.00 | 55 | 1010.8 |
| 20260507150018 | 8 | 338 | 8.0 | 14.5 | 0.00 | 0.25 | 0.00 | 55 | 1010.7 |
| 20260507145018 | 8 | 23 | 12.9 | 19.3 | 0.00 | 0.25 | 0.00 | 54 | 1010.8 |
| 20260507144018 | 9 | 338 | 11.3 | 20.9 | 0.00 | 0.28 | 0.00 | 52 | 1010.9 |
| 20260507143018 | 8 | 338 | 9.7 | 17.7 | 0.00 | 0.28 | 0.00 | 53 | 1010.7 |
| 20260507142058 | 8 | 315 | 4.8 | 11.3 | 0.00 | 0.30 | 0.00 | 56 | 1010.9 |
| 20260507141018 | 8 | 315 | 4.8 | 11.3 | 0.00 | 0.30 | 0.00 | 55 | 1011.0 |
| 20260507140018 | 8 | 338 | 9.7 | 19.3 | 0.00 | 0.33 | 0.00 | 55 | 1011.2 |
| 20260507135018 | 8 | 293 | 6.4 | 17.7 | 0.00 | 0.33 | 0.00 | 54 | 1011.0 |
| 20260507134058 | 8 | 338 | 6.4 | 17.7 | 0.00 | 0.38 | 0.00 | 54 | 1011.0 |
| 20260507133018 | 8 | 293 | 4.8 | 8.0 | 0.00 | 0.43 | 0.00 | 55 | 1011.0 |
| 20260507132018 | 8 | 315 | 4.8 | 9.7 | 0.00 | 0.48 | 0.00 | 54 | 1010.9 |
| 20260507131018 | 8 | 270 | 4.8 | 9.7 | 0.00 | 0.53 | 0.00 | 56 | 1010.9 |
| 20260507130018 | 7 | 23 | 8.0 | 16.1 | 0.00 | 0.61 | 0.00 | 57 | 1011.2 |
| 20260507125018 | 7 | 338 | 6.4 | 14.5 | 0.00 | 0.69 | 0.00 | 59 | 1011.2 |
| 20260507124018 | 7 | 338 | 6.4 | 14.5 | 0.00 | 0.74 | 0.00 | 63 | 1011.1 |
| 20260507123018 | 7 | 338 | 6.4 | 14.5 | 0.00 | 0.79 | 0.00 | 62 | 1011.0 |
| 20260507122018 | 7 | 293 | 6.4 | 14.5 | 0.00 | 0.84 | 0.00 | 62 | 1011.0 |
| 20260507121018 | 7 | 293 | 4.8 | 9.7 | 0.00 | 0.89 | 0.00 | 62 | 1011.0 |
| 20260507120018 | 7 | 248 | 1.6 | 8.0 | 0.00 | 0.91 | 0.00 | 64 | 1010.8 |
| 20260507115017 | 7 | 225 | 1.6 | 6.4 | 0.00 | 0.94 | 0.00 | 70 | 1010.9 |
| 20260507114018 | 6 | 0.0 | 3.2 | 0.00 | 0.94 | 0.00 | 74 | 1011.0 | |
| 20260507113017 | 6 | 0.0 | 1.6 | 0.00 | 0.97 | 0.00 | 76 | 1010.9 | |
| 20260507112018 | 5 | 0.0 | 1.6 | 0.00 | 0.99 | 0.00 | 78 | 1010.8 | |
| 20260507111017 | 5 | 203 | 3.2 | 6.4 | 0.00 | 1.04 | 0.00 | 79 | 1010.7 |
| 20260507110018 | 4 | 203 | 3.2 | 6.4 | 0.00 | 1.12 | 0.00 | 80 | 1010.5 |
| 20260507105037 | 3 | 158 | 3.2 | 8.0 | 0.00 | 1.17 | 0.00 | 81 | 1010.4 |
| 20260507104018 | 3 | 180 | 3.2 | 6.4 | 0.00 | 1.22 | 0.00 | 81 | 1010.5 |
| 20260507103017 | 3 | 158 | 3.2 | 4.8 | 0.00 | 1.24 | 0.00 | 82 | 1010.5 |
| 20260507102038 | 2 | 158 | 1.6 | 3.2 | 0.00 | 1.27 | 0.00 | 82 | 1010.3 |
| 20260507101038 | 2 | 158 | 1.6 | 3.2 | 0.00 | 1.30 | 0.00 | 82 | 1010.3 |
| 20260507100037 | 2 | 158 | 1.6 | 3.2 | 0.00 | 1.30 | 0.00 | 81 | 1010.3 |
| 20260507095017 | 2 | 158 | 1.6 | 3.2 | 0.00 | 1.32 | 0.00 | 81 | 1010.3 |
| 20260507094017 | 3 | 0.0 | 1.6 | 0.00 | 1.35 | 0.00 | 80 | 1010.3 | |
| 20260507093017 | 3 | 158 | 1.6 | 3.2 | 0.00 | 1.37 | 0.00 | 80 | 1010.1 |
| 20260507092017 | 3 | 158 | 1.6 | 3.2 | 0.00 | 1.40 | 0.00 | 79 | 1010.1 |
| 20260507091017 | 3 | 0.0 | 3.2 | 0.00 | 1.42 | 0.00 | 79 | 1010.4 | |
| 20260507090017 | 3 | 0.0 | 0.0 | 0.00 | 1.45 | 0.00 | 79 | 1010.5 | |
| 20260507085037 | 4 | 225 | 1.6 | 4.8 | 0.00 | 1.45 | 0.00 | 77 | 1010.4 |
| 20260507084017 | 5 | 0.0 | 3.2 | 0.00 | 1.47 | 0.00 | 76 | 1010.4 | |
| 20260507083017 | 5 | 248 | 1.6 | 8.0 | 0.00 | 1.50 | 0.00 | 76 | 1010.5 |
| 20260507082017 | 5 | 293 | 1.6 | 6.4 | 0.00 | 1.52 | 0.00 | 77 | 1010.6 |
| 20260507081017 | 5 | 248 | 1.6 | 4.8 | 0.00 | 1.55 | 0.00 | 78 | 1010.5 |
| 20260507080019 | 5 | 0.0 | 3.2 | 0.00 | 1.55 | 0.00 | 76 | 1010.4 | |
| 20260507075019 | 5 | 0.0 | 3.2 | 0.00 | 1.57 | 0.00 | 76 | 1010.3 | |
| 20260507074019 | 6 | 0.0 | 4.8 | 0.00 | 1.57 | 0.00 | 75 | 1010.4 | |
| 20260507073019 | 6 | 248 | 1.6 | 3.2 | 0.00 | 1.57 | 0.00 | 76 | 1010.2 |
| 20260507072019 | 6 | 0.0 | 3.2 | 0.00 | 1.57 | 0.00 | 76 | 1010.1 | |
| 20260507071039 | 6 | 248 | 1.6 | 4.8 | 0.00 | 1.57 | 0.00 | 75 | 1010.2 |
| 20260507070039 | 6 | 248 | 3.2 | 4.8 | 0.00 | 1.57 | 0.00 | 73 | 1010.2 |
| 20260507065018 | 6 | 248 | 3.2 | 8.0 | 0.00 | 1.57 | 0.00 | 72 | 1010.3 |
| 20260507064018 | 6 | 293 | 3.2 | 8.0 | 0.00 | 1.57 | 0.00 | 71 | 1010.3 |
| 20260507063018 | 6 | 293 | 6.4 | 14.5 | 0.00 | 1.57 | 0.00 | 73 | 1010.4 |
| 20260507062020 | 6 | 293 | 6.4 | 9.7 | 0.00 | 1.57 | 0.00 | 74 | 1010.4 |
| 20260507061018 | 6 | 293 | 6.4 | 12.9 | 0.00 | 1.57 | 0.00 | 75 | 1010.5 |
| 20260507060039 | 6 | 293 | 6.4 | 16.1 | 0.00 | 1.60 | 0.00 | 77 | 1010.6 |
| 20260507055018 | 6 | 293 | 6.4 | 9.7 | 0.00 | 1.63 | 0.00 | 79 | 1010.5 |
| 20260507054018 | 6 | 293 | 6.4 | 11.3 | 0.00 | 1.63 | 0.00 | 79 | 1010.4 |
| 20260507053018 | 7 | 293 | 4.8 | 9.7 | 0.00 | 1.63 | 0.00 | 79 | 1010.5 |
| 20260507052018 | 7 | 270 | 4.8 | 11.3 | 0.00 | 1.63 | 0.00 | 81 | 1010.5 |
| 20260507051018 | 7 | 293 | 4.8 | 11.3 | 0.00 | 1.63 | 0.00 | 81 | 1010.5 |
| 20260507050018 | 7 | 293 | 6.4 | 16.1 | 0.00 | 1.63 | 0.00 | 82 | 1010.4 |
| 20260507045018 | 7 | 293 | 6.4 | 17.7 | 0.00 | 1.63 | 0.00 | 84 | 1010.2 |
| 20260507044038 | 7 | 293 | 6.4 | 12.9 | 0.00 | 1.63 | 0.00 | 84 | 1010.4 |
| 20260507043018 | 7 | 293 | 8.0 | 16.1 | 0.00 | 1.63 | 0.00 | 84 | 1010.2 |
| 20260507042038 | 7 | 293 | 6.4 | 12.9 | 0.00 | 1.63 | 0.00 | 85 | 1010.0 |
| 20260507041018 | 7 | 293 | 8.0 | 17.7 | 0.00 | 1.63 | 0.00 | 85 | 1009.9 |
| 20260507040018 | 7 | 315 | 4.8 | 14.5 | 0.00 | 1.63 | 1.63 | 86 | 1009.8 |
| 20260507035038 | 8 | 338 | 4.8 | 12.9 | 0.00 | 1.63 | 1.63 | 85 | 1009.7 |
| 20260507034018 | 8 | 315 | 1.6 | 4.8 | 0.00 | 1.65 | 1.63 | 86 | 1009.7 |
| 20260507033019 | 8 | 293 | 3.2 | 8.0 | 0.00 | 1.68 | 1.63 | 85 | 1009.6 |
| 20260507032018 | 8 | 315 | 1.6 | 6.4 | 0.00 | 1.70 | 1.63 | 86 | 1009.7 |
| 20260507031018 | 8 | 315 | 1.6 | 4.8 | 0.00 | 1.73 | 1.63 | 86 | 1009.6 |
| 20260507030018 | 8 | 248 | 1.6 | 3.2 | 0.00 | 1.75 | 1.63 | 85 | 1009.7 |
| 20260507025018 | 7 | 0.0 | 1.6 | 0.00 | 1.78 | 1.63 | 86 | 1009.6 | |
| 20260507024038 | 7 | 0.0 | 3.2 | 0.00 | 1.80 | 1.63 | 86 | 1009.6 | |
| 20260507023018 | 7 | 0.0 | 1.6 | 0.00 | 1.83 | 1.63 | 86 | 1009.7 | |
| 20260507022058 | 7 | 248 | 1.6 | 3.2 | 0.00 | 1.88 | 1.63 | 86 | 1009.8 |
| 20260507021018 | 7 | 0.0 | 0.0 | 0.00 | 1.96 | 1.63 | 87 | 1009.6 | |
| 20260507020038 | 7 | 0.0 | 1.6 | 0.00 | 1.98 | 1.63 | 87 | 1009.8 | |
| 20260507015018 | 7 | 0.0 | 3.2 | 0.00 | 2.03 | 1.63 | 87 | 1009.8 | |
| 20260507014018 | 7 | 0.0 | 3.2 | 0.00 | 2.03 | 1.63 | 87 | 1009.8 | |
| 20260507013017 | 7 | 180 | 1.6 | 3.2 | 0.00 | 2.03 | 1.63 | 86 | 1009.7 |
| 20260507012018 | 7 | 0.0 | 0.0 | 0.00 | 2.06 | 1.63 | 86 | 1009.6 | |
| 20260507010017 | 7 | 0.0 | 1.6 | 0.00 | 2.11 | 1.63 | 85 | 1009.5 | |
| 20260507005038 | 7 | 225 | 1.6 | 3.2 | 0.00 | 2.11 | 1.63 | 85 | 1009.6 |
| 20260507004017 | 7 | 225 | 1.6 | 3.2 | 0.00 | 2.11 | 1.63 | 84 | 1009.5 |
| 20260507003017 | 8 | 0.0 | 3.2 | 0.00 | 2.13 | 1.63 | 83 | 1009.3 | |
| 20260507002017 | 8 | 270 | 1.6 | 3.2 | 0.00 | 2.13 | 1.63 | 84 | 1009.3 |
| 20260507001017 | 8 | 315 | 1.6 | 3.2 | 0.00 | 2.13 | 1.63 | 83 | 1009.2 |
| 20260507000017 | 8 | 248 | 1.6 | 4.8 | 0.00 | 2.13 | 1.63 | 84 | 1008.9 |
| 20260506235037 | 8 | 248 | 3.2 | 8.0 | 0.00 | 2.13 | 1.63 | 85 | 1009.1 |
| 20260506234017 | 8 | 225 | 1.6 | 3.2 | 0.00 | 2.13 | 1.63 | 82 | 1008.6 |
| 20260506233017 | 8 | 293 | 4.8 | 11.3 | 0.00 | 2.13 | 1.63 | 82 | 1008.8 |
| 20260506232017 | 8 | 225 | 1.6 | 4.8 | 0.00 | 2.13 | 1.63 | 84 | 1008.2 |
| 20260506231037 | 8 | 225 | 1.6 | 4.8 | 0.00 | 2.13 | 1.63 | 83 | 1007.9 |
| 20260506230037 | 8 | 225 | 3.2 | 6.4 | 0.00 | 2.13 | 1.63 | 82 | 1008.0 |
| 20260506225018 | 8 | 315 | 1.6 | 6.4 | 0.00 | 2.13 | 1.63 | 82 | 1008.1 |
| 20260506224017 | 8 | 248 | 1.6 | 6.4 | 0.00 | 2.13 | 1.63 | 82 | 1008.2 |
| 20260506223017 | 8 | 293 | 4.8 | 8.0 | 0.00 | 2.13 | 1.63 | 82 | 1008.4 |
| 20260506222017 | 8 | 293 | 4.8 | 8.0 | 0.00 | 2.13 | 1.63 | 82 | 1008.6 |
| 20260506221017 | 8 | 293 | 4.8 | 14.5 | 0.00 | 2.13 | 1.63 | 81 | 1008.6 |
| 20260506220037 | 8 | 293 | 4.8 | 11.3 | 0.00 | 2.13 | 1.63 | 82 | 1008.4 |
| 20260506215017 | 8 | 293 | 4.8 | 8.0 | 0.00 | 2.13 | 1.63 | 82 | 1008.3 |
| 20260506214017 | 8 | 293 | 8.0 | 12.9 | 0.00 | 2.13 | 1.63 | 82 | 1008.1 |
| 20260506213037 | 8 | 293 | 4.8 | 9.7 | 0.00 | 2.13 | 1.63 | 83 | 1008.2 |
| 20260506212039 | 8 | 315 | 4.8 | 11.3 | 0.00 | 2.13 | 1.63 | 83 | 1008.0 |
| 20260506211019 | 8 | 293 | 6.4 | 16.1 | 0.00 | 2.24 | 1.63 | 84 | 1008.1 |